Location: New Town
(33.2710°N, 90.7534°W)
Time: 14:03:17
(UTC+00:00)

Explorer 11/Cluster Stage 4 - Pass Details

Date: 14 May 2021
Orbit: 467 x 1257 km, 28.8° (Epoch: 14 June)

Event Time Altitude Azimuth Distance (km) Brightness Sun altitude
Rises 05:21:35 0° 270° (W) 4,190 10.4 -37.3°
Reaches altitude 10° 05:24:40 10° 267° (W) 3,193 9.7 -37.4°
Enters shadow 05:25:42 14° 265° (W) 2,861 9.4 -37.4°
Maximum altitude 05:32:29 55° 192° (SSW) 1,350 - -37.6°
Drops below altitude 10° 05:39:15 10° 117° (ESE) 2,774 - -37.8°
Sets 05:41:45 0° 113° (ESE) 3,609 - -37.9°
